Location: Unspecified
(0.0000°N, 0.0000°E)
Time: 15:20:05
(UTC+00:00)

DMSP 5D-2 F13 DEB - Pass Details

Date: 21 February 2026
Orbit: 782 x 824 km, 98.9° (Epoch: 8 March)

Event Time Altitude Azimuth Distance (km) Brightness Sun altitude
Rises 18:51:48 0° 155° (SSE) 3,272 ? -9.4°
Reaches altitude 10° 18:54:14 10° 148° (SSE) 2,338 ? -10.0°
Maximum altitude 18:59:06 43° 77° (ENE) 1,081 ? -11.2°
Drops below altitude 10° 19:03:57 10° 6° (N) 2,329 ? -12.4°
Sets 19:06:21 0° 360° (N) 3,256 ? -13.0°
